Location: Amsterdam
(30.7274°N, 84.4357°W)
Time: 19:36:41
(UTC+00:00)

Altair - Pass Details

Date: 06 August 2024
Orbit: 1501 x 1682 km, 47.2° (Epoch: 07 September)

Event Time Altitude Azimuth Distance (km) Brightness Sun altitude
Rises 02:54:05 0° 303° (WNW) 4,665 11.3 -27.6°
Reaches altitude 10° 02:57:17 10° 297° (WNW) 3,667 10.4 -28.1°
Maximum altitude 03:05:49 44° 229° (SW) 1,965 8.0 -29.4°
Enters shadow 03:08:16 37° 194° (SSW) 2,158 8.0 -29.7°
Drops below altitude 10° 03:14:20 10° 160° (SSE) 3,654 - -30.6°
Sets 03:17:33 0° 154° (SSE) 4,646 - -31.1°
